Houston / Dunn Helistop, TX

10:46 PM CDT on April 24, 2017 (GMT -0500)
Houston / Dunn Helistop

Weather History for KMCJ - December, 2012

Change the Weather History Date:

Monday, December 3, 2012

  Actual Average (KHOU) Record (KHOU)
Temperature  
Mean Temperature 75 °F -  
Max Temperature 82 °F 65 °F 85 °F (1995)
Min Temperature 68 °F 48 °F 25 °F (1929)
Cooling Degree Days 10    
Growing Degree Days 25 (Base 50)    
Moisture  
Dew Point 66 °F    
Average Humidity 81    
Maximum Humidity 100    
Minimum Humidity 42    
Precipitation  
Precipitation 0.08 in - - ()
Sea Level Pressure  
Sea Level Pressure 30.03 in    
Wind  
Wind Speed 8 mph (South)    
Max Wind Speed 14 mph    
Max Gust Speed 22 mph    
Visibility 8 miles    
Events      
Averages and records for this station are not official NWS values.
T = Trace of Precipitation, MM = Missing Value Source: NWS Daily Summary

Daily Weather History Graph

Daily Weather History Graph

Search for Another Location

Airport or City:

Trip Planner

Search our weather history database for the weather conditions in past years. The results will help you decide how hot, cold, wet, or windy it might be!

Date:

Astronomy

Dec. 03, 2012 Rise Set
Actual Time 7:01 AM CST 5:22 PM CST
Civil Twilight 6:35 AM CST 5:48 PM CST
Nautical Twilight 6:05 AM CST 6:17 PM CST
Astronomical Twilight 5:36 AM CST 6:46 PM CST
Moon 9:57 PM CST (12/3) 10:35 AM CST (12/3)
Length of Visible Light 11h 12m
Length of Day
10h 20m
Waning Gibbous, 78% of the Moon is Illuminated
Dec 3
Waning Gibbous
Dec 6
Last Quarter
Dec 13
New
Dec 19
First Quarter
Dec 28
Full

Hourly Weather History & Observations

Time (CST) Temp. Heat Index Dew Point Humidity Pressure Visibility Wind Dir Wind Speed Gust Speed Precip Events Conditions
12:15 AM 68.0 °F - 66.2 °F 94% 30.07 in 10.0 mi SSE 9.2 mph - N/A   Mostly Cloudy
12:35 AM 68.0 °F - 66.2 °F 94% 30.07 in 10.0 mi South 9.2 mph - N/A   Overcast
12:55 AM 68.0 °F - 66.2 °F 94% 30.07 in 10.0 mi South 8.1 mph - N/A   Overcast
1:15 AM 69.8 °F - 66.2 °F 88% 30.06 in 10.0 mi South 8.1 mph - N/A   Mostly Cloudy
1:35 AM 69.8 °F - 66.2 °F 88% 30.05 in 10.0 mi South 8.1 mph - N/A   Mostly Cloudy
1:55 AM 69.8 °F - 66.2 °F 88% 30.05 in 10.0 mi South 6.9 mph - N/A   Overcast
2:15 AM 68.0 °F - 66.2 °F 94% 30.04 in 10.0 mi SSE 8.1 mph - N/A   Overcast
2:35 AM 68.0 °F - 66.2 °F 94% 30.04 in 10.0 mi SSE 8.1 mph - N/A   Overcast
2:55 AM 68.0 °F - 66.2 °F 94% 30.04 in 10.0 mi South 6.9 mph - N/A   Overcast
3:15 AM 69.8 °F - 64.4 °F 83% 30.04 in 10.0 mi SSE 8.1 mph - N/A   Overcast
3:35 AM 69.8 °F - 64.4 °F 83% 30.04 in 10.0 mi SSE 6.9 mph - N/A   Overcast
3:55 AM 69.8 °F - 66.2 °F 88% 30.04 in 10.0 mi SSE 11.5 mph - N/A   Overcast
4:15 AM 68.0 °F - 66.2 °F 94% 30.04 in 1.2 mi South 8.1 mph - N/A   Overcast
4:35 AM 68.0 °F - 66.2 °F 94% 30.04 in 3.0 mi SSE 6.9 mph - 0.01 in   Overcast
4:55 AM 68.0 °F - 66.2 °F 94% 30.03 in 1.0 mi SSE 8.1 mph - 0.02 in   Overcast
5:15 AM 68.0 °F - 66.2 °F 94% 30.03 in 1.0 mi SSE 9.2 mph - 0.01 in   Overcast
5:35 AM 68.0 °F - 66.2 °F 94% 30.03 in 3.0 mi SSE 10.4 mph - 0.02 in   Overcast
5:55 AM 68.0 °F - 66.2 °F 94% 30.03 in 2.5 mi SSE 9.2 mph - 0.02 in   Overcast
6:15 AM 68.0 °F - 68.0 °F 100% 30.04 in 6.0 mi SSE 8.1 mph - N/A   Overcast
6:35 AM 68.0 °F - 68.0 °F 100% 30.04 in 5.0 mi South 11.5 mph - N/A   Overcast
6:55 AM 68.0 °F - 68.0 °F 100% 30.05 in 1.8 mi South 10.4 mph - 0.02 in   Overcast
7:15 AM 68.0 °F - 68.0 °F 100% 30.05 in 2.0 mi South 8.1 mph - 0.01 in   Overcast
7:35 AM 68.0 °F - 68.0 °F 100% 30.06 in 6.0 mi SSE 6.9 mph - 0.01 in   Overcast
7:55 AM 68.0 °F - 68.0 °F 100% 30.06 in 5.0 mi South 6.9 mph - 0.01 in   Overcast
8:15 AM 68.0 °F - 68.0 °F 100% 30.06 in 6.0 mi South 9.2 mph - 0.01 in   Overcast
8:35 AM 68.0 °F - 68.0 °F 100% 30.06 in 5.0 mi South 8.1 mph - 0.01 in   Mostly Cloudy
8:55 AM 69.8 °F - 68.0 °F 94% 30.06 in 5.0 mi South 5.8 mph - 0.01 in   Mostly Cloudy
9:15 AM 71.6 °F - 68.0 °F 88% 30.07 in 7.0 mi SSW 3.5 mph - N/A   Overcast
9:35 AM 71.6 °F - 69.8 °F 94% 30.07 in 6.0 mi South 3.5 mph - N/A   Overcast
9:55 AM 73.4 °F - 69.8 °F 88% 30.06 in 7.0 mi South 12.7 mph - N/A   Overcast
10:15 AM 75.2 °F - 69.8 °F 83% 30.06 in 8.0 mi South 6.9 mph - N/A   Overcast
10:35 AM 75.2 °F - 68.0 °F 78% 30.06 in 9.0 mi WSW 3.5 mph - N/A   Mostly Cloudy
10:55 AM 75.2 °F - 68.0 °F 78% 30.05 in 9.0 mi SSW 6.9 mph - N/A   Mostly Cloudy
11:15 AM 77.0 °F - 68.0 °F 74% 30.05 in 10.0 mi SSW 6.9 mph - N/A   Scattered Clouds
11:35 AM 78.8 °F - 66.2 °F 65% 30.04 in 10.0 mi SW 3.5 mph - N/A   Partly Cloudy
11:55 AM 80.6 °F 82.7 °F 66.2 °F 61% 30.03 in 10.0 mi South 5.8 mph 19.6 mph N/A   Partly Cloudy
12:15 PM 78.8 °F - 66.2 °F 65% 30.02 in 10.0 mi WSW 4.6 mph - N/A   Mostly Cloudy
12:55 PM 80.6 °F 82.3 °F 64.4 °F 58% 30.00 in 10.0 mi SW 9.2 mph 16.1 mph N/A   Mostly Cloudy
1:15 PM 82.4 °F 83.9 °F 64.4 °F 54% 29.99 in 10.0 mi SW 8.1 mph 20.7 mph N/A   Scattered Clouds
1:35 PM 80.6 °F 82.3 °F 64.4 °F 58% 29.99 in 10.0 mi South 10.4 mph 19.6 mph N/A   Mostly Cloudy
1:55 PM 82.4 °F 83.4 °F 62.6 °F 51% 29.98 in 10.0 mi South 10.4 mph 18.4 mph N/A   Scattered Clouds
2:15 PM 82.4 °F 83.4 °F 62.6 °F 51% 29.98 in 10.0 mi SW 10.4 mph 18.4 mph N/A   Clear
2:35 PM 82.4 °F 82.5 °F 59.0 °F 45% 29.97 in 10.0 mi SW 9.2 mph 21.9 mph N/A   Partly Cloudy
2:55 PM 82.4 °F 82.0 °F 57.2 °F 42% 29.97 in 10.0 mi SW 8.1 mph 20.7 mph N/A   Clear
3:15 PM 82.4 °F 82.5 °F 59.0 °F 45% 29.98 in 10.0 mi SSW 4.6 mph - N/A   Partly Cloudy
3:35 PM 80.6 °F 81.5 °F 60.8 °F 51% 29.97 in 10.0 mi South 13.8 mph 20.7 mph N/A   Scattered Clouds
3:55 PM 82.4 °F 82.5 °F 59.0 °F 45% 29.98 in 10.0 mi SSW 6.9 mph - N/A   Partly Cloudy
4:15 PM 80.6 °F 81.1 °F 59.0 °F 48% 29.97 in 10.0 mi SSW 8.1 mph - N/A   Clear
4:35 PM 80.6 °F 81.5 °F 60.8 °F 51% 29.98 in 10.0 mi South 9.2 mph - N/A   Clear
4:55 PM 78.8 °F - 60.8 °F 54% 29.98 in 10.0 mi South 9.2 mph 16.1 mph N/A   Clear
5:15 PM 77.0 °F - 60.8 °F 57% 29.99 in 10.0 mi SSW 6.9 mph - N/A   Clear
5:35 PM 77.0 °F - 62.6 °F 61% 29.99 in 10.0 mi South 10.4 mph 16.1 mph N/A   Clear
5:55 PM 75.2 °F - 62.6 °F 65% 29.99 in 10.0 mi South 9.2 mph - N/A   Clear
6:15 PM 75.2 °F - 62.6 °F 65% 29.99 in 10.0 mi South 12.7 mph - N/A   Clear
6:35 PM 73.4 °F - 64.4 °F 73% 29.99 in 10.0 mi South 12.7 mph - N/A   Clear
6:55 PM 73.4 °F - 64.4 °F 73% 29.99 in 10.0 mi South 12.7 mph - N/A   Clear
7:15 PM 73.4 °F - 64.4 °F 73% 30.00 in 10.0 mi South 11.5 mph 18.4 mph N/A   Clear
7:35 PM 71.6 °F - 66.2 °F 83% 30.00 in 10.0 mi South 9.2 mph 18.4 mph N/A   Clear
7:55 PM 71.6 °F - 66.2 °F 83% 30.02 in 10.0 mi South 12.7 mph - N/A   Clear
8:15 PM 71.6 °F - 66.2 °F 83% 30.03 in 10.0 mi SSE 4.6 mph - N/A   Clear
8:35 PM 69.8 °F - 66.2 °F 88% 30.03 in 10.0 mi South 6.9 mph - N/A   Clear
8:55 PM 69.8 °F - 66.2 °F 88% 30.03 in 10.0 mi South 5.8 mph - N/A   Clear
9:15 PM 68.0 °F - 66.2 °F 94% 30.02 in 9.0 mi South 9.2 mph - N/A   Clear
9:35 PM 68.0 °F - 68.0 °F 100% 30.02 in 7.0 mi South 10.4 mph - N/A   Mostly Cloudy
9:55 PM 68.0 °F - 68.0 °F 100% 30.02 in 5.0 mi South 9.2 mph - N/A   Mostly Cloudy
10:15 PM 68.0 °F - 68.0 °F 100% 30.03 in 5.0 mi South 10.4 mph - N/A   Scattered Clouds
10:35 PM 68.0 °F - 68.0 °F 100% 30.03 in 5.0 mi South 9.2 mph - N/A   Partly Cloudy
10:55 PM 68.0 °F - 68.0 °F 100% 30.02 in 5.0 mi South 12.7 mph - N/A   Mostly Cloudy
11:15 PM 68.0 °F - 68.0 °F 100% 30.02 in 4.0 mi South 9.2 mph - N/A   Mostly Cloudy
11:35 PM 68.0 °F - 68.0 °F 100% 30.02 in 5.0 mi South 10.4 mph - N/A   Mostly Cloudy